Time,TemperatureF,DewpointF,PressureIn,WindDirection,WindDirectionDegrees,WindSpeedMPH,WindSpeedGustMPH,Humidity,HourlyPrecipIn,Conditions,Clouds,dailyrainin,SolarRadiationWatts/m^2,SoftwareType,DateUTC
2013-03-22 00:02:00,17.0,11.0,-100.00,NNW,347,2.0,4.0,76,0.00,,,0.21,0.000000,,2013-03-22 06:02:00,
2013-03-22 00:22:00,17.0,11.0,-100.00,NNW,347,2.0,4.0,76,0.00,,,0.21,0.000000,,2013-03-22 06:22:00,
2013-03-22 00:32:00,17.0,11.0,-100.00,NNW,347,2.0,4.0,76,0.00,,,0.21,0.000000,,2013-03-22 06:32:00,
2013-03-22 00:43:00,17.0,11.0,-100.00,NNW,347,2.0,4.0,76,0.00,,,0.21,0.000000,,2013-03-22 06:43:00,
2013-03-22 00:52:00,17.0,11.0,-100.00,NNW,347,2.0,4.0,76,0.00,,,0.21,0.000000,,2013-03-22 06:52:00,
2013-03-22 01:02:00,19.0,12.0,-100.00,NW,321,2.0,6.0,74,0.00,,,0.21,0.000000,,2013-03-22 07:02:00,
2013-03-22 01:22:00,19.0,12.0,-100.00,NW,321,2.0,6.0,74,0.00,,,0.21,0.000000,,2013-03-22 07:22:00,
2013-03-22 01:32:00,19.0,12.0,-100.00,NW,321,2.0,6.0,74,0.00,,,0.21,0.000000,,2013-03-22 07:32:00,
2013-03-22 01:42:00,19.0,12.0,-100.00,NW,321,2.0,6.0,74,0.00,,,0.21,0.000000,,2013-03-22 07:42:00,
2013-03-22 01:52:00,19.0,12.0,-100.00,NW,321,2.0,6.0,74,0.00,,,0.21,0.000000,,2013-03-22 07:52:00,
2013-03-22 02:22:00,18.0,11.0,-100.00,NW,305,1.0,3.0,74,0.00,,,0.21,0.000000,,2013-03-22 08:22:00,
2013-03-22 02:32:00,18.0,11.0,-100.00,NW,305,1.0,3.0,74,0.00,,,0.21,0.000000,,2013-03-22 08:32:00,
2013-03-22 02:42:00,18.0,11.0,-100.00,NW,305,1.0,3.0,74,0.00,,,0.21,0.000000,,2013-03-22 08:42:00,
2013-03-22 02:52:00,18.0,11.0,-100.00,NW,305,1.0,3.0,74,0.00,,,0.21,0.000000,,2013-03-22 08:52:00,
2013-03-22 03:01:00,18.0,11.0,-100.00,NW,305,1.0,3.0,74,0.00,,,0.21,0.000000,,2013-03-22 09:01:00,
2013-03-22 03:02:00,17.0,12.0,-100.00,WSW,244,1.0,2.0,82,0.00,,,0.21,0.000000,,2013-03-22 09:02:00,
2013-03-22 03:33:00,17.0,12.0,-100.00,WSW,244,1.0,2.0,82,0.00,,,0.21,0.000000,,2013-03-22 09:33:00,
2013-03-22 03:42:00,17.0,12.0,-100.00,WSW,244,1.0,2.0,82,0.00,,,0.21,0.000000,,2013-03-22 09:42:00,
2013-03-22 03:53:00,17.0,12.0,-100.00,WSW,244,1.0,2.0,82,0.00,,,0.21,0.000000,,2013-03-22 09:53:00,
2013-03-22 04:02:00,16.0,11.0,-100.00,WNW,286,2.0,3.0,82,0.00,,,0.21,0.000000,,2013-03-22 10:02:00,
2013-03-22 04:33:00,16.0,11.0,-100.00,WNW,286,2.0,3.0,82,0.00,,,0.21,0.000000,,2013-03-22 10:33:00,
2013-03-22 04:42:00,16.0,11.0,-100.00,WNW,286,2.0,3.0,82,0.00,,,0.21,0.000000,,2013-03-22 10:42:00,
2013-03-22 04:52:00,16.0,11.0,-100.00,WNW,286,2.0,3.0,82,0.00,,,0.21,0.000000,,2013-03-22 10:52:00,
2013-03-22 05:22:00,16.0,11.0,-100.00,NW,325,1.0,4.0,79,0.00,,,0.21,0.000000,,2013-03-22 11:22:00,
2013-03-22 05:33:00,16.0,11.0,-100.00,NW,325,1.0,4.0,79,0.00,,,0.21,0.000000,,2013-03-22 11:33:00,
2013-03-22 05:42:00,16.0,11.0,-100.00,NW,325,1.0,4.0,79,0.00,,,0.21,0.000000,,2013-03-22 11:42:00,
2013-03-22 05:52:00,16.0,11.0,-100.00,NW,325,1.0,4.0,79,0.00,,,0.21,0.000000,,2013-03-22 11:52:00,
2013-03-22 06:01:00,16.0,11.0,-100.00,NW,325,1.0,4.0,79,0.00,,,0.21,0.000000,,2013-03-22 12:01:00,
2013-03-22 06:02:00,16.0,11.0,-100.00,NNW,334,1.0,2.0,81,0.00,,,0.21,0.000000,,2013-03-22 12:02:00,
2013-03-22 06:32:00,16.0,11.0,-100.00,NNW,334,1.0,2.0,81,0.00,,,0.21,0.000000,,2013-03-22 12:32:00,
2013-03-22 06:42:00,16.0,11.0,-100.00,NNW,334,1.0,2.0,81,0.00,,,0.21,0.000000,,2013-03-22 12:42:00,
2013-03-22 06:52:00,16.0,11.0,-100.00,NNW,334,1.0,2.0,81,0.00,,,0.21,0.000000,,2013-03-22 12:52:00,
2013-03-22 07:02:00,15.0,11.0,-100.00,NW,311,1.0,3.0,84,0.00,,,0.21,0.000000,,2013-03-22 13:02:00,
2013-03-22 07:22:00,15.0,11.0,-100.00,NW,311,1.0,3.0,84,0.00,,,0.21,0.000000,,2013-03-22 13:22:00,
2013-03-22 07:32:00,15.0,11.0,-100.00,NW,311,1.0,3.0,84,0.00,,,0.21,0.000000,,2013-03-22 13:32:00,
2013-03-22 07:42:00,15.0,11.0,-100.00,NW,311,1.0,3.0,84,0.00,,,0.21,0.000000,,2013-03-22 13:42:00,
2013-03-22 07:52:00,15.0,11.0,-100.00,NW,311,1.0,3.0,84,0.00,,,0.21,0.000000,,2013-03-22 13:52:00,
2013-03-22 08:02:00,16.0,12.0,-100.00,NW,320,1.0,2.0,84,0.00,,,0.21,2.000000,,2013-03-22 14:02:00,
2013-03-22 08:22:00,16.0,12.0,-100.00,NW,320,1.0,2.0,84,0.00,,,0.21,2.000000,,2013-03-22 14:22:00,
2013-03-22 08:32:00,16.0,12.0,-100.00,NW,320,1.0,2.0,84,0.00,,,0.21,2.000000,,2013-03-22 14:32:00,
2013-03-22 08:43:00,16.0,12.0,-100.00,NW,320,1.0,2.0,84,0.00,,,0.21,2.000000,,2013-03-22 14:43:00,
2013-03-22 08:52:00,16.0,12.0,-100.00,NW,320,1.0,2.0,84,0.00,,,0.21,2.000000,,2013-03-22 14:52:00,
2013-03-22 09:02:00,19.0,14.0,-100.00,SSW,202,2.0,3.0,80,0.00,,,0.21,12.000000,,2013-03-22 15:02:00,
2013-03-22 09:22:00,19.0,14.0,-100.00,SSW,202,2.0,3.0,80,0.00,,,0.21,12.000000,,2013-03-22 15:22:00,
2013-03-22 09:33:00,19.0,14.0,-100.00,SSW,202,2.0,3.0,80,0.00,,,0.21,12.000000,,2013-03-22 15:33:00,
2013-03-22 09:43:00,19.0,14.0,-100.00,SSW,202,2.0,3.0,80,0.00,,,0.21,12.000000,,2013-03-22 15:43:00,
2013-03-22 09:52:00,19.0,14.0,-100.00,SSW,202,2.0,3.0,80,0.00,,,0.21,12.000000,,2013-03-22 15:52:00,
2013-03-22 10:02:00,22.0,16.0,-100.00,SSE,150,2.0,4.0,79,0.00,,,0.21,28.000000,,2013-03-22 16:02:00,
2013-03-22 10:32:00,22.0,16.0,-100.00,SSE,150,2.0,4.0,79,0.00,,,0.21,28.000000,,2013-03-22 16:32:00,
2013-03-22 10:42:00,22.0,16.0,-100.00,SSE,150,2.0,4.0,79,0.00,,,0.21,28.000000,,2013-03-22 16:42:00,
2013-03-22 10:52:00,22.0,16.0,-100.00,SSE,150,2.0,4.0,79,0.00,,,0.21,28.000000,,2013-03-22 16:52:00,
2013-03-22 11:33:00,22.0,18.0,-100.00,ESE,106,3.0,6.0,83,0.00,,,0.21,33.000000,,2013-03-22 17:33:00,
2013-03-22 11:42:00,22.0,18.0,-100.00,ESE,106,3.0,6.0,83,0.00,,,0.21,33.000000,,2013-03-22 17:42:00,
2013-03-22 11:52:00,22.0,18.0,-100.00,ESE,106,3.0,6.0,83,0.00,,,0.21,33.000000,,2013-03-22 17:52:00,
2013-03-22 12:01:00,22.0,18.0,-100.00,ESE,106,3.0,6.0,83,0.00,,,0.21,33.000000,,2013-03-22 18:01:00,
2013-03-22 12:02:00,25.0,17.0,-100.00,SE,124,3.0,8.0,71,0.02,,,0.23,68.000000,,2013-03-22 18:02:00,
2013-03-22 12:33:00,25.0,17.0,-100.00,SE,124,3.0,8.0,71,0.02,,,0.23,68.000000,,2013-03-22 18:33:00,
2013-03-22 12:42:00,25.0,17.0,-100.00,SE,124,3.0,8.0,71,0.02,,,0.23,68.000000,,2013-03-22 18:42:00,
2013-03-22 12:52:00,25.0,17.0,-100.00,SE,124,3.0,8.0,71,0.02,,,0.23,68.000000,,2013-03-22 18:52:00,
2013-03-22 13:22:00,28.0,17.0,-100.00,SE,134,4.0,7.0,64,0.03,,,0.26,53.000000,,2013-03-22 19:22:00,
2013-03-22 13:33:00,28.0,17.0,-100.00,SE,134,4.0,7.0,64,0.03,,,0.26,53.000000,,2013-03-22 19:33:00,
2013-03-22 13:43:00,28.0,17.0,-100.00,SE,134,4.0,7.0,64,0.03,,,0.26,53.000000,,2013-03-22 19:43:00,
2013-03-22 13:52:00,28.0,17.0,-100.00,SE,134,4.0,7.0,64,0.03,,,0.26,53.000000,,2013-03-22 19:52:00,
2013-03-22 14:01:00,28.0,17.0,-100.00,SE,134,4.0,7.0,64,0.03,,,0.26,53.000000,,2013-03-22 20:01:00,
2013-03-22 14:02:00,26.0,18.0,-100.00,ESE,106,4.0,7.0,72,0.01,,,0.15,45.000000,,2013-03-22 20:02:00,
2013-03-22 14:32:00,26.0,18.0,-100.00,ESE,106,4.0,7.0,72,0.01,,,0.15,45.000000,,2013-03-22 20:32:00,
2013-03-22 14:43:00,26.0,18.0,-100.00,ESE,106,4.0,7.0,72,0.01,,,0.15,45.000000,,2013-03-22 20:43:00,
2013-03-22 14:52:00,26.0,18.0,-100.00,ESE,106,4.0,7.0,72,0.01,,,0.15,45.000000,,2013-03-22 20:52:00,
2013-03-22 15:02:00,28.0,20.0,-100.00,East,81,4.0,7.0,71,0.02,,,0.09,57.000000,,2013-03-22 21:02:00,
2013-03-22 15:33:00,28.0,20.0,-100.00,East,81,4.0,7.0,71,0.02,,,0.09,57.000000,,2013-03-22 21:33:00,
2013-03-22 15:43:00,28.0,20.0,-100.00,East,81,4.0,7.0,71,0.02,,,0.09,57.000000,,2013-03-22 21:43:00,
2013-03-22 15:53:00,28.0,20.0,-100.00,East,81,4.0,7.0,71,0.02,,,0.09,57.000000,,2013-03-22 21:53:00,
2013-03-22 16:02:00,25.0,16.0,-100.00,ENE,66,4.0,7.0,68,0.00,,,0.08,45.000000,,2013-03-22 22:02:00,
2013-03-22 16:23:00,25.0,16.0,-100.00,ENE,66,4.0,7.0,68,0.00,,,0.08,45.000000,,2013-03-22 22:23:00,
2013-03-22 16:32:00,25.0,16.0,-100.00,ENE,66,4.0,7.0,68,0.00,,,0.08,45.000000,,2013-03-22 22:32:00,
2013-03-22 16:43:00,25.0,16.0,-100.00,ENE,66,4.0,7.0,68,0.00,,,0.08,45.000000,,2013-03-22 22:43:00,
2013-03-22 16:52:00,25.0,16.0,-100.00,ENE,66,4.0,7.0,68,0.00,,,0.08,45.000000,,2013-03-22 22:52:00,
2013-03-22 17:22:00,24.0,17.0,-100.00,ENE,61,4.0,8.0,73,0.00,,,0.08,36.000000,,2013-03-22 23:22:00,
2013-03-22 17:32:00,24.0,17.0,-100.00,ENE,61,4.0,8.0,73,0.00,,,0.08,36.000000,,2013-03-22 23:32:00,
2013-03-22 17:42:00,24.0,17.0,-100.00,ENE,61,4.0,8.0,73,0.00,,,0.08,36.000000,,2013-03-22 23:42:00,
2013-03-22 17:52:00,24.0,17.0,-100.00,ENE,61,4.0,8.0,73,0.00,,,0.08,36.000000,,2013-03-22 23:52:00,
2013-03-22 18:01:00,24.0,17.0,-100.00,ENE,61,4.0,8.0,73,0.00,,,0.08,36.000000,,2013-03-23 00:01:00,
2013-03-22 18:02:00,22.0,17.0,-100.00,NNE,33,3.0,12.0,82,0.00,,,0.08,28.000000,,2013-03-23 00:02:00,
2013-03-22 18:33:00,22.0,17.0,-100.00,NNE,33,3.0,12.0,82,0.00,,,0.08,28.000000,,2013-03-23 00:33:00,
2013-03-22 18:42:00,22.0,17.0,-100.00,NNE,33,3.0,12.0,82,0.00,,,0.08,28.000000,,2013-03-23 00:42:00,
2013-03-22 18:52:00,22.0,17.0,-100.00,NNE,33,3.0,12.0,82,0.00,,,0.08,28.000000,,2013-03-23 00:52:00,
2013-03-22 19:02:00,21.0,17.0,-100.00,SSE,159,2.0,5.0,85,0.00,,,0.08,17.000000,,2013-03-23 01:02:00,
2013-03-22 19:22:00,21.0,17.0,-100.00,SSE,159,2.0,5.0,85,0.00,,,0.08,17.000000,,2013-03-23 01:22:00,
2013-03-22 19:32:00,21.0,17.0,-100.00,SSE,159,2.0,5.0,85,0.00,,,0.08,17.000000,,2013-03-23 01:32:00,
2013-03-22 19:43:00,21.0,17.0,-100.00,SSE,159,2.0,5.0,85,0.00,,,0.08,17.000000,,2013-03-23 01:43:00,
2013-03-22 19:52:00,21.0,17.0,-100.00,SSE,159,2.0,5.0,85,0.00,,,0.08,17.000000,,2013-03-23 01:52:00,
2013-03-22 20:02:00,18.0,14.0,-100.00,SW,229,2.0,5.0,83,0.00,,,0.08,2.000000,,2013-03-23 02:02:00,
2013-03-22 20:22:00,18.0,14.0,-100.00,SW,229,2.0,5.0,83,0.00,,,0.08,2.000000,,2013-03-23 02:22:00,
2013-03-22 20:32:00,18.0,14.0,-100.00,SW,229,2.0,5.0,83,0.00,,,0.08,2.000000,,2013-03-23 02:32:00,
2013-03-22 20:42:00,18.0,14.0,-100.00,SW,229,2.0,5.0,83,0.00,,,0.08,2.000000,,2013-03-23 02:42:00,
2013-03-22 20:52:00,18.0,14.0,-100.00,SW,229,2.0,5.0,83,0.00,,,0.08,2.000000,,2013-03-23 02:52:00,
2013-03-22 21:02:00,17.0,13.0,-100.00,NW,322,2.0,4.0,84,0.00,,,0.08,0.000000,,2013-03-23 03:02:00,
2013-03-22 21:23:00,17.0,13.0,-100.00,NW,322,2.0,4.0,84,0.00,,,0.08,0.000000,,2013-03-23 03:23:00,
2013-03-22 21:33:00,17.0,13.0,-100.00,NW,322,2.0,4.0,84,0.00,,,0.08,0.000000,,2013-03-23 03:33:00,
2013-03-22 21:43:00,17.0,13.0,-100.00,NW,322,2.0,4.0,84,0.00,,,0.08,0.000000,,2013-03-23 03:43:00,
2013-03-22 21:53:00,17.0,13.0,-100.00,NW,322,2.0,4.0,84,0.00,,,0.08,0.000000,,2013-03-23 03:53:00,
2013-03-22 22:02:00,16.0,11.0,-100.00,WNW,296,2.0,5.0,81,0.00,,,0.08,0.000000,,2013-03-23 04:02:00,
2013-03-22 22:33:00,16.0,11.0,-100.00,WNW,296,2.0,5.0,81,0.00,,,0.08,0.000000,,2013-03-23 04:33:00,
2013-03-22 22:43:00,16.0,11.0,-100.00,WNW,296,2.0,5.0,81,0.00,,,0.08,0.000000,,2013-03-23 04:43:00,
2013-03-22 22:53:00,16.0,11.0,-100.00,WNW,296,2.0,5.0,81,0.00,,,0.08,0.000000,,2013-03-23 04:53:00,
2013-03-22 23:02:00,15.0,11.0,-100.00,NW,316,2.0,3.0,82,0.00,,,0.08,0.000000,,2013-03-23 05:02:00,
2013-03-22 23:33:00,15.0,11.0,-100.00,NW,316,2.0,3.0,82,0.00,,,0.08,0.000000,,2013-03-23 05:33:00,
2013-03-22 23:42:00,15.0,11.0,-100.00,NW,316,2.0,3.0,82,0.00,,,0.08,0.000000,,2013-03-23 05:42:00,
2013-03-22 23:52:00,15.0,11.0,-100.00,NW,316,2.0,3.0,82,0.00,,,0.08,0.000000,,2013-03-23 05:52:00,